Time,TemperatureF,DewpointF,PressureIn,WindDirection,WindDirectionDegrees,WindSpeedMPH,WindSpeedGustMPH,Humidity,HourlyPrecipIn,Conditions,Clouds,dailyrainin,SoftwareType,DateUTC
2013-06-15 00:02:00,62.0,59.0,30.01,WNW,284,0.0,0.0,89,0.00,,,0.00,,2013-06-15 04:02:00,
2013-06-15 00:12:00,62.0,59.0,30.01,WNW,284,0.0,0.0,89,0.00,,,0.00,,2013-06-15 04:12:00,
2013-06-15 00:22:00,63.0,59.0,30.02,WNW,284,0.0,0.0,87,0.00,,,0.00,,2013-06-15 04:22:00,
2013-06-15 00:34:00,62.0,57.0,30.03,WNW,283,0.0,0.0,85,0.00,,,0.00,,2013-06-15 04:34:00,
2013-06-15 00:43:00,62.0,57.0,30.03,WNW,283,0.0,0.0,85,0.00,,,0.00,,2013-06-15 04:43:00,
2013-06-15 00:54:00,61.0,57.0,30.03,WNW,284,0.0,0.0,88,0.00,,,0.00,,2013-06-15 04:54:00,
2013-06-15 01:02:00,61.0,57.0,30.03,WNW,284,0.0,0.0,88,0.00,,,0.00,,2013-06-15 05:02:00,
2013-06-15 01:12:00,62.0,59.0,30.03,WNW,284,0.0,0.0,91,0.00,,,0.00,,2013-06-15 05:12:00,
2013-06-15 01:22:00,61.0,58.0,30.03,WNW,283,0.0,0.0,89,0.00,,,0.00,,2013-06-15 05:22:00,
2013-06-15 01:34:00,60.0,57.0,30.04,WNW,284,0.0,0.0,90,0.00,,,0.00,,2013-06-15 05:34:00,
2013-06-15 01:43:00,60.0,57.0,30.04,WNW,284,0.0,0.0,90,0.00,,,0.00,,2013-06-15 05:43:00,
2013-06-15 01:52:00,61.0,59.0,30.05,WNW,284,0.0,0.0,92,0.00,,,0.00,,2013-06-15 05:52:00,
2013-06-15 02:02:00,61.0,59.0,30.05,WNW,284,0.0,0.0,92,0.00,,,0.00,,2013-06-15 06:02:00,
2013-06-15 02:12:00,61.0,59.0,30.05,WNW,284,0.0,0.0,92,0.00,,,0.00,,2013-06-15 06:12:00,
2013-06-15 02:24:00,62.0,59.0,30.04,WSW,255,1.0,1.0,89,0.00,,,0.00,,2013-06-15 06:24:00,
2013-06-15 02:33:00,63.0,58.0,30.05,South,191,2.0,4.0,83,0.00,,,0.00,,2013-06-15 06:33:00,
2013-06-15 02:43:00,63.0,58.0,30.05,South,191,2.0,4.0,83,0.00,,,0.00,,2013-06-15 06:43:00,
2013-06-15 02:53:00,64.0,59.0,30.05,South,182,1.0,3.0,84,0.00,,,0.00,,2013-06-15 06:53:00,
2013-06-15 03:01:00,64.0,58.0,30.05,SSW,195,1.0,2.0,81,0.00,,,0.00,,2013-06-15 07:01:00,
2013-06-15 03:11:00,64.0,58.0,30.05,SSW,195,1.0,2.0,81,0.00,,,0.00,,2013-06-15 07:11:00,
2013-06-15 03:23:00,64.0,58.0,30.05,SSW,195,1.0,4.0,81,0.00,,,0.00,,2013-06-15 07:23:00,
2013-06-15 03:33:00,65.0,59.0,30.05,SW,218,2.0,3.0,80,0.00,,,0.00,,2013-06-15 07:33:00,
2013-06-15 03:43:00,65.0,59.0,30.05,SW,218,2.0,3.0,80,0.00,,,0.00,,2013-06-15 07:43:00,
2013-06-15 03:54:00,65.0,58.0,30.05,SW,215,3.0,5.0,78,0.00,,,0.00,,2013-06-15 07:54:00,
2013-06-15 04:02:00,65.0,58.0,30.05,SSE,165,2.0,4.0,78,0.00,,,0.00,,2013-06-15 08:02:00,
2013-06-15 04:11:00,65.0,58.0,30.05,SSE,165,2.0,4.0,78,0.00,,,0.00,,2013-06-15 08:11:00,
2013-06-15 04:22:00,65.0,58.0,30.05,South,184,2.0,4.0,79,0.00,,,0.00,,2013-06-15 08:22:00,
2013-06-15 04:33:00,64.0,58.0,30.04,SW,221,1.0,3.0,81,0.00,,,0.00,,2013-06-15 08:33:00,
2013-06-15 04:43:00,64.0,58.0,30.04,SW,221,1.0,3.0,81,0.00,,,0.00,,2013-06-15 08:43:00,
2013-06-15 04:53:00,64.0,59.0,30.04,SW,214,1.0,2.0,83,0.00,,,0.00,,2013-06-15 08:53:00,
2013-06-15 05:02:00,63.0,58.0,30.04,SSW,212,2.0,3.0,84,0.00,,,0.00,,2013-06-15 09:02:00,
2013-06-15 05:12:00,63.0,58.0,30.04,SSW,212,2.0,3.0,84,0.00,,,0.00,,2013-06-15 09:12:00,
2013-06-15 05:22:00,64.0,59.0,30.04,SSW,203,2.0,3.0,83,0.00,,,0.00,,2013-06-15 09:22:00,
2013-06-15 05:33:00,64.0,59.0,30.04,SSW,203,2.0,3.0,83,0.00,,,0.00,,2013-06-15 09:33:00,
2013-06-15 05:43:00,63.0,58.0,30.05,SW,219,0.0,2.0,84,0.00,,,0.00,,2013-06-15 09:43:00,
2013-06-15 05:52:00,62.0,57.0,30.06,WSW,241,0.0,1.0,85,0.00,,,0.00,,2013-06-15 09:52:00,
2013-06-15 06:02:00,62.0,57.0,30.06,WSW,241,0.0,1.0,85,0.00,,,0.00,,2013-06-15 10:02:00,
2013-06-15 06:12:00,62.0,58.0,30.06,WSW,242,0.0,1.0,86,0.00,,,0.00,,2013-06-15 10:12:00,
2013-06-15 06:23:00,61.0,57.0,30.08,WSW,242,0.0,0.0,88,0.00,,,0.00,,2013-06-15 10:23:00,
2013-06-15 06:34:00,61.0,57.0,30.08,WSW,242,0.0,0.0,88,0.00,,,0.00,,2013-06-15 10:34:00,
2013-06-15 06:44:00,61.0,58.0,30.09,WSW,253,1.0,1.0,89,0.00,,,0.00,,2013-06-15 10:44:00,
2013-06-15 06:53:00,62.0,59.0,30.09,WNW,290,0.0,1.0,90,0.00,,,0.00,,2013-06-15 10:53:00,
2013-06-15 07:02:00,62.0,59.0,30.09,WNW,290,0.0,1.0,90,0.00,,,0.00,,2013-06-15 11:02:00,
2013-06-15 07:12:00,62.0,60.0,30.09,WNW,290,0.0,1.0,92,0.00,,,0.00,,2013-06-15 11:12:00,
2013-06-15 07:22:00,63.0,61.0,30.10,WSW,254,0.0,2.0,92,0.00,,,0.00,,2013-06-15 11:22:00,
2013-06-15 07:33:00,65.0,61.0,30.11,West,276,1.0,3.0,88,0.00,,,0.00,,2013-06-15 11:33:00,
2013-06-15 07:43:00,65.0,61.0,30.11,West,276,1.0,3.0,88,0.00,,,0.00,,2013-06-15 11:43:00,
2013-06-15 08:02:00,67.0,62.0,30.11,West,264,1.0,2.0,83,0.00,,,0.00,,2013-06-15 12:02:00,
2013-06-15 08:22:00,70.0,62.0,30.12,West,260,1.0,4.0,76,0.00,,,0.00,,2013-06-15 12:22:00,
2013-06-15 08:43:00,71.0,62.0,30.12,SW,218,1.0,3.0,73,0.00,,,0.00,,2013-06-15 12:43:00,
2013-06-15 09:02:00,72.0,62.0,30.12,West,269,2.0,5.0,70,0.00,,,0.00,,2013-06-15 13:02:00,
2013-06-15 09:11:00,72.0,62.0,30.12,West,269,2.0,5.0,70,0.00,,,0.00,,2013-06-15 13:11:00,
2013-06-15 09:22:00,73.0,63.0,30.12,West,269,2.0,6.0,70,0.00,,,0.00,,2013-06-15 13:22:00,
2013-06-15 09:32:00,73.0,63.0,30.12,West,269,2.0,6.0,70,0.00,,,0.00,,2013-06-15 13:32:00,
2013-06-15 09:43:00,73.0,62.0,30.13,SW,235,3.0,7.0,69,0.00,,,0.00,,2013-06-15 13:43:00,
2013-06-15 09:53:00,74.0,63.0,30.13,WNW,298,4.0,9.0,68,0.00,,,0.00,,2013-06-15 13:53:00,
2013-06-15 10:02:00,75.0,63.0,30.13,WSW,243,3.0,8.0,67,0.00,,,0.00,,2013-06-15 14:02:00,
2013-06-15 10:12:00,75.0,63.0,30.13,WSW,243,3.0,8.0,67,0.00,,,0.00,,2013-06-15 14:12:00,
2013-06-15 10:23:00,76.0,63.0,30.13,WSW,256,3.0,7.0,65,0.00,,,0.00,,2013-06-15 14:23:00,
2013-06-15 10:34:00,76.0,63.0,30.13,West,276,1.0,5.0,65,0.00,,,0.00,,2013-06-15 14:34:00,
2013-06-15 10:43:00,76.0,63.0,30.13,West,276,1.0,5.0,65,0.00,,,0.00,,2013-06-15 14:43:00,
2013-06-15 10:54:00,76.0,63.0,30.13,WNW,283,2.0,8.0,64,0.00,,,0.00,,2013-06-15 14:54:00,
2013-06-15 11:02:00,77.0,64.0,30.13,South,172,2.0,7.0,64,0.00,,,0.00,,2013-06-15 15:02:00,
2013-06-15 11:12:00,77.0,64.0,30.13,South,172,2.0,7.0,64,0.00,,,0.00,,2013-06-15 15:12:00,
2013-06-15 11:22:00,78.0,64.0,30.12,West,277,4.0,11.0,63,0.00,,,0.00,,2013-06-15 15:22:00,
2013-06-15 11:33:00,78.0,64.0,30.12,West,277,4.0,11.0,63,0.00,,,0.00,,2013-06-15 15:33:00,
2013-06-15 11:43:00,79.0,65.0,30.12,West,277,2.0,8.0,62,0.00,,,0.00,,2013-06-15 15:43:00,
2013-06-15 11:53:00,80.0,64.0,30.11,West,270,3.0,7.0,59,0.00,,,0.00,,2013-06-15 15:53:00,
2013-06-15 12:01:00,80.0,65.0,30.12,WSW,245,3.0,9.0,61,0.00,,,0.00,,2013-06-15 16:01:00,
2013-06-15 12:12:00,80.0,65.0,30.12,WSW,245,3.0,9.0,61,0.00,,,0.00,,2013-06-15 16:12:00,
2013-06-15 12:22:00,81.0,64.0,30.11,West,280,3.0,9.0,57,0.00,,,0.00,,2013-06-15 16:22:00,
2013-06-15 12:33:00,81.0,64.0,30.11,West,280,3.0,9.0,57,0.00,,,0.00,,2013-06-15 16:33:00,
2013-06-15 12:43:00,80.0,63.0,30.12,NNW,344,4.0,7.0,57,0.00,,,0.00,,2013-06-15 16:43:00,
2013-06-15 12:53:00,81.0,63.0,30.11,SSW,197,4.0,9.0,55,0.00,,,0.00,,2013-06-15 16:53:00,
2013-06-15 13:02:00,82.0,64.0,30.11,WSW,248,5.0,11.0,55,0.00,,,0.00,,2013-06-15 17:02:00,
2013-06-15 13:12:00,82.0,64.0,30.11,WSW,248,5.0,11.0,55,0.00,,,0.00,,2013-06-15 17:12:00,
2013-06-15 13:22:00,83.0,64.0,30.11,SSW,206,6.0,10.0,52,0.00,,,0.00,,2013-06-15 17:22:00,
2013-06-15 13:32:00,83.0,64.0,30.10,NNW,336,2.0,13.0,53,0.00,,,0.00,,2013-06-15 17:32:00,
2013-06-15 13:43:00,83.0,64.0,30.10,NNW,336,2.0,13.0,53,0.00,,,0.00,,2013-06-15 17:43:00,
2013-06-15 13:52:00,83.0,64.0,30.10,WNW,289,4.0,10.0,52,0.00,,,0.00,,2013-06-15 17:52:00,
2013-06-15 14:01:00,84.0,63.0,30.09,ESE,105,2.0,9.0,49,0.00,,,0.00,,2013-06-15 18:01:00,
2013-06-15 14:12:00,84.0,63.0,30.09,ESE,105,2.0,9.0,49,0.00,,,0.00,,2013-06-15 18:12:00,
2013-06-15 14:22:00,84.0,64.0,30.09,West,267,2.0,7.0,51,0.00,,,0.00,,2013-06-15 18:22:00,
2013-06-15 14:32:00,84.0,63.0,30.08,NNW,348,3.0,8.0,50,0.00,,,0.00,,2013-06-15 18:32:00,
2013-06-15 14:43:00,84.0,63.0,30.08,NNW,348,3.0,8.0,50,0.00,,,0.00,,2013-06-15 18:43:00,
2013-06-15 14:53:00,84.0,61.0,30.08,SW,221,3.0,7.0,46,0.00,,,0.00,,2013-06-15 18:53:00,
2013-06-15 15:02:00,84.0,61.0,30.08,NW,315,5.0,8.0,46,0.00,,,0.00,,2013-06-15 19:02:00,
2013-06-15 15:12:00,84.0,61.0,30.08,NW,315,5.0,8.0,46,0.00,,,0.00,,2013-06-15 19:12:00,
2013-06-15 15:22:00,84.0,62.0,30.08,NW,311,3.0,7.0,47,0.00,,,0.00,,2013-06-15 19:22:00,
2013-06-15 15:33:00,84.0,63.0,30.08,NW,307,2.0,11.0,49,0.00,,,0.00,,2013-06-15 19:33:00,
2013-06-15 15:43:00,84.0,63.0,30.08,NW,307,2.0,11.0,49,0.00,,,0.00,,2013-06-15 19:43:00,
2013-06-15 15:53:00,84.0,60.0,30.08,SW,218,7.0,10.0,44,0.00,,,0.00,,2013-06-15 19:53:00,
2013-06-15 16:02:00,84.0,60.0,30.08,SW,218,7.0,10.0,44,0.00,,,0.00,,2013-06-15 20:02:00,
2013-06-15 16:12:00,85.0,63.0,30.07,SW,217,3.0,6.0,48,0.00,,,0.00,,2013-06-15 20:12:00,
2013-06-15 16:22:00,85.0,63.0,30.07,SW,217,3.0,6.0,48,0.00,,,0.00,,2013-06-15 20:22:00,
2013-06-15 16:33:00,85.0,62.0,30.07,NW,323,3.0,6.0,47,0.00,,,0.00,,2013-06-15 20:33:00,
2013-06-15 16:43:00,85.0,62.0,30.07,NW,323,3.0,6.0,47,0.00,,,0.00,,2013-06-15 20:43:00,
2013-06-15 16:53:00,85.0,62.0,30.07,SSW,199,3.0,10.0,46,0.00,,,0.00,,2013-06-15 20:53:00,
2013-06-15 17:02:00,86.0,62.0,30.07,SW,231,3.0,8.0,45,0.00,,,0.00,,2013-06-15 21:02:00,
2013-06-15 17:12:00,86.0,62.0,30.07,SW,231,3.0,8.0,45,0.00,,,0.00,,2013-06-15 21:12:00,
2013-06-15 17:22:00,83.0,61.0,30.07,West,278,1.0,4.0,47,0.00,,,0.00,,2013-06-15 21:22:00,
2013-06-15 17:34:00,83.0,61.0,30.07,West,278,1.0,4.0,47,0.00,,,0.00,,2013-06-15 21:34:00,
2013-06-15 17:42:00,83.0,61.0,30.07,West,278,1.0,4.0,47,0.00,,,0.00,,2013-06-15 21:42:00,
2013-06-15 17:53:00,85.0,64.0,30.06,North,358,2.0,7.0,50,0.00,,,0.00,,2013-06-15 21:53:00,
2013-06-15 18:01:00,85.0,64.0,30.06,WNW,300,3.0,6.0,49,0.00,,,0.00,,2013-06-15 22:01:00,
2013-06-15 18:11:00,85.0,64.0,30.06,WNW,300,3.0,6.0,49,0.00,,,0.00,,2013-06-15 22:11:00,
2013-06-15 18:22:00,85.0,64.0,30.06,NW,318,2.0,6.0,49,0.00,,,0.00,,2013-06-15 22:22:00,
2013-06-15 18:33:00,84.0,62.0,30.06,SW,235,3.0,5.0,48,0.00,,,0.00,,2013-06-15 22:33:00,
2013-06-15 18:43:00,84.0,62.0,30.06,SW,235,3.0,5.0,48,0.00,,,0.00,,2013-06-15 22:43:00,
2013-06-15 18:53:00,85.0,62.0,30.06,SW,218,2.0,4.0,46,0.00,,,0.00,,2013-06-15 22:53:00,
2013-06-15 19:02:00,84.0,62.0,30.06,West,276,2.0,8.0,48,0.00,,,0.00,,2013-06-15 23:02:00,
2013-06-15 19:12:00,84.0,62.0,30.06,West,276,2.0,8.0,48,0.00,,,0.00,,2013-06-15 23:12:00,
2013-06-15 19:22:00,84.0,62.0,30.06,SSW,200,2.0,4.0,48,0.00,,,0.00,,2013-06-15 23:22:00,
2013-06-15 19:33:00,84.0,63.0,30.07,WSW,252,0.0,3.0,50,0.00,,,0.00,,2013-06-15 23:33:00,
2013-06-15 19:43:00,84.0,63.0,30.07,WSW,252,0.0,3.0,50,0.00,,,0.00,,2013-06-15 23:43:00,
2013-06-15 19:53:00,83.0,64.0,30.07,West,274,0.0,2.0,52,0.00,,,0.00,,2013-06-15 23:53:00,
2013-06-15 20:02:00,83.0,63.0,30.06,West,274,0.0,0.0,51,0.00,,,0.00,,2013-06-16 00:02:00,
2013-06-15 20:12:00,83.0,63.0,30.06,West,274,0.0,0.0,51,0.00,,,0.00,,2013-06-16 00:12:00,
2013-06-15 20:22:00,80.0,63.0,30.07,SW,215,0.0,1.0,57,0.00,,,0.00,,2013-06-16 00:22:00,
2013-06-15 20:34:00,78.0,67.0,30.06,SW,215,0.0,1.0,68,0.00,,,0.00,,2013-06-16 00:34:00,
2013-06-15 20:43:00,78.0,67.0,30.06,SW,215,0.0,1.0,68,0.00,,,0.00,,2013-06-16 00:43:00,
2013-06-15 20:52:00,76.0,66.0,30.06,SW,215,0.0,0.0,71,0.00,,,0.00,,2013-06-16 00:52:00,
2013-06-15 21:02:00,75.0,66.0,30.06,SW,217,0.0,1.0,73,0.00,,,0.00,,2013-06-16 01:02:00,
2013-06-15 21:12:00,75.0,66.0,30.06,SW,217,0.0,1.0,73,0.00,,,0.00,,2013-06-16 01:12:00,
2013-06-15 21:22:00,73.0,65.0,30.07,SW,217,0.0,0.0,75,0.00,,,0.00,,2013-06-16 01:22:00,
2013-06-15 21:33:00,73.0,65.0,30.07,SW,217,0.0,1.0,77,0.00,,,0.00,,2013-06-16 01:33:00,
2013-06-15 21:42:00,73.0,65.0,30.07,SW,217,0.0,1.0,77,0.00,,,0.00,,2013-06-16 01:42:00,
2013-06-15 21:53:00,71.0,64.0,30.07,SW,217,0.0,0.0,78,0.00,,,0.00,,2013-06-16 01:53:00,
2013-06-15 22:02:00,70.0,63.0,30.07,SW,217,0.0,0.0,79,0.00,,,0.00,,2013-06-16 02:02:00,
2013-06-15 22:12:00,70.0,63.0,30.07,SW,217,0.0,0.0,79,0.00,,,0.00,,2013-06-16 02:12:00,
2013-06-15 22:22:00,70.0,65.0,30.08,SW,217,0.0,0.0,83,0.00,,,0.00,,2013-06-16 02:22:00,
2013-06-15 22:33:00,70.0,65.0,30.08,SW,217,0.0,0.0,83,0.00,,,0.00,,2013-06-16 02:33:00,
2013-06-15 22:43:00,70.0,65.0,30.08,SW,217,0.0,0.0,83,0.00,,,0.00,,2013-06-16 02:43:00,
2013-06-15 22:53:00,69.0,64.0,30.08,SW,217,0.0,0.0,85,0.00,,,0.00,,2013-06-16 02:53:00,
2013-06-15 23:02:00,71.0,64.0,30.08,SE,134,6.0,11.0,78,0.00,,,0.00,,2013-06-16 03:02:00,
2013-06-15 23:12:00,71.0,64.0,30.08,SE,134,6.0,11.0,78,0.00,,,0.00,,2013-06-16 03:12:00,
2013-06-15 23:22:00,72.0,64.0,30.08,South,181,8.0,13.0,77,0.00,,,0.00,,2013-06-16 03:22:00,
2013-06-15 23:34:00,71.0,63.0,30.09,SSW,195,6.0,10.0,77,0.00,,,0.00,,2013-06-16 03:34:00,
2013-06-15 23:43:00,71.0,63.0,30.09,SSW,195,6.0,10.0,77,0.00,,,0.00,,2013-06-16 03:43:00,
2013-06-15 23:53:00,71.0,63.0,30.09,SSW,198,5.0,11.0,75,0.00,,,0.00,,2013-06-16 03:53:00,